Flag for Switzerland Weather past 2 weeks in Geneva, Geneva, Switzerland

Now
66 °F

Partly sunny.


Feels Like: 66 °F
Forecast: 54 / 79 °F
Wind: 3 mph from Southeast

Location: Geneve-Cointrin

Current Time: Sep 17, 2014 at 12:21:51 PM

Latest Report: Sep 17, 2014 at 11:00 AM


Visibility: 13 mi

Pressure: 29.90 "Hg

Humidity: 73%

Dew point: 57 °F

Location of GenevaLocation

Historic Weather in Geneva — Graph

°F

Geneva temperature yesterday

Maximum temperature yesterday: 75 °F (at 4:00 PM)
Minimum temperature yesterday: 57 °F (at 6:00 AM)
Average temperature yesterday: 65 °F

Past Weeks' High & Low Weather Summary

 TemperatureHumidityPressure
High83 °F (Sep 8, 4:00 PM)94% (Sep 10, 12:00 AM)30.10 "Hg (Sep 10, 12:00 AM)
Low53 °F (Sep 13, 6:00 AM)40% (Sep 2, 5:00 PM)29.84 "Hg (Sep 6, 6:00 PM)
Average64 °F74%29.97 "Hg
* Reported Sep 2 11:00 AM — Sep 17 11:00 AM, Geneva, Weather by CustomWeather, © 2014

Note: Actual official high and low records may vary slightly from our data, if they occured in-between our weather recording intervals... More about our weather records

Advertising

Geneva weather history for previous 24 hours

 ConditionsComfort  
Time TempWeatherWind HumidityBarometerVisibility
11:00 AM
Sep 17
66 °FPartly sunny.3 mph73%29.90 "Hg12 mi
10:00 AM64 °FMild.3 mph79%29.90 "HgN/A
9:00 AM62 °FCool.1 mph84%29.90 "HgN/A
8:00 AM60 °FPartly sunny.2 mph87%29.90 "Hg12 mi
7:00 AM58 °FCool.2 mph91%29.89 "HgN/A
6:00 AM59 °FCool.1 mph90%29.90 "HgN/A
5:00 AM58 °FOvercast.3 mph90%29.92 "Hg12 mi
4:00 AM58 °FCool.2 mph88%29.93 "HgN/A
3:00 AM58 °FCool.2 mph88%29.93 "HgN/A
2:00 AM58 °FPassing clouds.1 mph88%29.93 "Hg16 mi
1:00 AM59 °FCool.1 mph90%29.92 "HgN/A
12:00 AM61 °FCool.1 mph87%29.92 "HgN/A
11:00 PM
Sep 16
62 °FPassing clouds.1 mph85%29.91 "Hg16 mi
10:00 PM62 °FMild.1 mph84%29.91 "HgN/A
9:00 PM65 °FMild.1 mph74%29.90 "HgN/A
8:00 PM66 °FPassing clouds.2 mph71%29.88 "Hg25 mi
7:00 PM72 °FMild.5 mph58%29.86 "HgN/A
6:00 PM74 °FMild.9 mph56%29.86 "HgN/A
5:00 PM75 °FScattered clouds.5 mph55%29.86 "Hg19 mi
4:00 PM75 °FMild.3 mph53%29.87 "HgN/A
3:00 PM72 °FMild.6 mph56%29.90 "HgN/A
2:00 PM72 °FScattered clouds.5 mph61%29.92 "Hg14 mi
1:00 PM69 °FMild.3 mph65%29.94 "HgN/A
12:00 PM68 °FMild.3 mph69%29.96 "HgN/A
Weather by CustomWeather, © 2014

See weather overviewHow to use our weather pages